Weather History for KDFI - December, 2012

Change the Weather History Date:

Wednesday, December 19, 2012

  Actual Average Record
Temperature  
Mean Temperature 40 °F -  
Max Temperature 44 °F 34 °F 56 °F (1957)
Min Temperature 37 °F 19 °F -10 °F (1963)
Degree Days  
Heating Degree Days 24    
Moisture  
Dew Point 34 °F    
Average Humidity 82    
Maximum Humidity 93    
Minimum Humidity 65    
Precipitation  
Precipitation 0.00 in - - ()
Sea Level Pressure  
Sea Level Pressure 29.97 in    
Wind  
Wind Speed 2 mph (NNW)    
Max Wind Speed 13 mph    
Max Gust Speed -    
Visibility 8 miles    
Events      
Averages and records for this station are not official NWS values.
T = Trace of Precipitation, MM = Missing Value Source: NWS Daily Summary

Daily Weather History Graph

Daily Weather History Graph

Search for Another Location

Airport or City:

Trip Planner

Search our weather history database for the weather conditions in past years. The results will help you decide how hot, cold, wet, or windy it might be!

Date:

Astronomy

Dec. 19, 2012 Rise Set
Actual Time 7:59 AM EST 5:10 PM EST
Civil Twilight 7:28 AM EST 5:42 PM EST
Nautical Twilight 6:53 AM EST 6:17 PM EST
Astronomical Twilight 6:19 AM EST 6:50 PM EST
Moon 12:03 PM EST (12/19) No Moon Set
Length of Visible Light 10h 14m
Length of Day
9h 11m
Waxing Crescent, 45% of the Moon is Illuminated
Dec 19
Waxing Crescent
Dec 20
First Quarter
Dec 28
Full
Jan 4
Last Quarter
Jan 11
New

Hourly Weather History & Observations

Time (EST) Temp. Windchill Dew Point Humidity Pressure Visibility Wind Dir Wind Speed Gust Speed Precip Events Conditions
12:39 AM 37.4 °F - 35.6 °F 93% 29.73 in 6.0 mi Calm Calm - N/A   Overcast
12:53 AM 37.9 °F - 35.1 °F 89% 29.74 in 6.0 mi Calm Calm - N/A   Overcast
1:18 AM 37.4 °F - 33.8 °F 87% 29.74 in 6.0 mi Calm Calm - N/A   Overcast
1:36 AM 37.4 °F - 35.6 °F 93% 29.75 in 5.0 mi Calm Calm - N/A   Overcast
1:43 AM 37.4 °F - 35.6 °F 93% 29.75 in 5.0 mi Calm Calm - N/A   Overcast
1:53 AM 37.0 °F - 35.1 °F 93% 29.77 in 5.0 mi Calm Calm - N/A   Overcast
2:53 AM 37.0 °F - 35.1 °F 93% 29.81 in 5.0 mi Calm Calm - N/A   Overcast
3:53 AM 39.0 °F - 35.1 °F 86% 29.84 in 6.0 mi Calm Calm - N/A   Overcast
4:53 AM 39.0 °F - 36.0 °F 89% 29.87 in 7.0 mi Calm Calm - N/A   Overcast
5:11 AM 39.2 °F 35.9 °F 35.6 °F 87% 29.85 in 5.0 mi NW 4.6 mph - N/A   Overcast
5:36 AM 39.2 °F 37.0 °F 35.6 °F 87% 29.86 in 5.0 mi West 3.5 mph - N/A   Overcast
5:53 AM 39.9 °F 37.8 °F 36.0 °F 86% 29.90 in 5.0 mi Variable 3.5 mph - N/A   Overcast
6:09 AM 39.2 °F 37.0 °F 37.4 °F 93% 29.89 in 5.0 mi Variable 3.5 mph - N/A   Overcast
6:53 AM 39.9 °F 35.8 °F 36.0 °F 86% 29.94 in 6.0 mi NW 5.8 mph - N/A   Overcast
7:53 AM 39.9 °F 36.7 °F 35.1 °F 83% 29.98 in 9.0 mi NW 4.6 mph - N/A   Overcast
8:53 AM 39.0 °F 36.8 °F 34.0 °F 82% 30.01 in 8.0 mi NW 3.5 mph - N/A   Overcast
9:16 AM 39.2 °F 35.9 °F 33.8 °F 81% 30.01 in 8.0 mi NW 4.6 mph - N/A   Overcast
9:53 AM 39.9 °F 35.1 °F 33.1 °F 77% 30.04 in 9.0 mi NW 6.9 mph - N/A   Overcast
10:53 AM 41.0 °F 36.4 °F 33.1 °F 73% 30.05 in 9.0 mi North 6.9 mph - N/A   Overcast
11:34 AM 41.0 °F 37.1 °F 33.8 °F 76% 30.05 in 9.0 mi WNW 5.8 mph - N/A   Partly Cloudy
11:53 AM 41.0 °F - 34.0 °F 76% 30.06 in 9.0 mi Calm Calm - N/A   Mostly Cloudy
12:19 PM 42.8 °F - 33.8 °F 70% 30.05 in 9.0 mi Calm Calm - N/A   Scattered Clouds
12:38 PM 41.0 °F 39.0 °F 33.8 °F 76% 30.05 in 9.0 mi Variable 3.5 mph - N/A   Mostly Cloudy
12:53 PM 42.1 °F 40.2 °F 34.0 °F 73% 30.07 in 9.0 mi WSW 3.5 mph - N/A   Mostly Cloudy
1:53 PM 42.1 °F - 33.1 °F 70% 30.06 in 9.0 mi Calm Calm - N/A   Mostly Cloudy
2:53 PM 43.0 °F - 33.1 °F 68% 30.08 in 10.0 mi Calm Calm - N/A   Overcast
3:53 PM 44.1 °F - 33.1 °F 65% 30.09 in 10.0 mi Calm Calm - N/A   Overcast
4:53 PM 42.1 °F - 33.1 °F 70% 30.10 in 10.0 mi Calm Calm - N/A   Overcast
5:39 PM 39.2 °F 37.0 °F 33.8 °F 81% 30.08 in 10.0 mi East 3.5 mph - N/A   Scattered Clouds
5:53 PM 39.0 °F - 32.0 °F 76% 30.10 in 9.0 mi Calm Calm - N/A   Partly Cloudy
6:53 PM 37.0 °F - 32.0 °F 82% 30.11 in 9.0 mi Calm Calm - N/A   Clear
7:53 PM 37.0 °F 34.5 °F 32.0 °F 82% 30.12 in 8.0 mi ENE 3.5 mph - N/A   Clear
8:53 PM 37.9 °F 34.4 °F 33.1 °F 83% 30.10 in 8.0 mi East 4.6 mph - N/A   Overcast
9:53 PM 37.9 °F 33.5 °F 33.1 °F 83% 30.11 in 8.0 mi East 5.8 mph - N/A   Mostly Cloudy
10:53 PM 37.9 °F 31.5 °F 33.1 °F 83% 30.06 in 9.0 mi ENE 9.2 mph - N/A   Overcast
11:53 PM 39.0 °F 31.4 °F 33.1 °F 79% 30.04 in 9.0 mi East 12.7 mph - N/A   Overcast